Location: Aboncourt
(47.7710°N, 5.9826°E)
Time: 03:15:31
(UTC+00:00)

IRIDIUM 104 - Pass Details

Date: 05 July 2020
Orbit: 776 x 779 km, 86.4° (Epoch: 03 August)

Event Time Altitude Azimuth Distance (km) Brightness Sun altitude
Exits shadow 23:23:20 37° 192° (SSW) 1,193 4.8 -19.5°
Maximum altitude 23:25:27 80° 273° (W) 798 4.3 -19.5°
Drops below altitude 10° 23:30:43 10° 2° (N) 2,343 8.0 -19.5°
Sets 23:33:05 0° 3° (N) 3,275 9.2 -19.5°
